Port Heiden, AK

11:56 AM AKST on December 17, 2017 (GMT -0900)
Port Heiden

Weather History for PAPH - November, 2012

Change the Weather History Date:

Monday, November 19, 2012

  Actual Average Record
Temperature  
Mean Temperature 12 °F -  
Max Temperature 17 °F 37 °F 46 °F (1998)
Min Temperature 8 °F 28 °F 8 °F (2012)
Degree Days  
Heating Degree Days 52    
Moisture  
Dew Point 1 °F    
Average Humidity 62    
Maximum Humidity 86    
Minimum Humidity 45    
Precipitation  
Precipitation 0.59 in - - ()
Sea Level Pressure  
Sea Level Pressure 29.70 in    
Wind  
Wind Speed 17 mph (NE)    
Max Wind Speed 25 mph    
Max Gust Speed 31 mph    
Visibility 6 miles    
Events      
Averages and records for this station are not official NWS values.
T = Trace of Precipitation, MM = Missing Value Source: NWS Daily Summary

Daily Weather History Graph

Daily Weather History Graph

Search for Another Location

Airport or City:

Trip Planner

Search our weather history database for the weather conditions in past years. The results will help you decide how hot, cold, wet, or windy it might be!

Date:

Astronomy

Nov. 19, 2012 Rise Set
Actual Time 9:25 AM AKST 5:13 PM AKST
Civil Twilight 8:41 AM AKST 5:58 PM AKST
Nautical Twilight 7:53 AM AKST 6:46 PM AKST
Astronomical Twilight 7:07 AM AKST 7:31 PM AKST
Moon 2:03 PM AKST (11/19) No Moon Set
Length of Visible Light 9h 17m
Length of Day
7h 48m
Waxing Crescent, 42% of the Moon is Illuminated
Nov 19
Waxing Crescent
Nov 20
First Quarter
Nov 28
Full
Dec 6
Last Quarter
Dec 12
New

Hourly Weather History & Observations

Time (AKST) Temp. Windchill Dew Point Humidity Pressure Visibility Wind Dir Wind Speed Gust Speed Precip Events Conditions
12:16 AM 15.8 °F -1.9 °F 12.2 °F 86% 29.60 in 3.0 mi NNE 21.9 mph - N/A   Overcast
12:36 AM - - - N/A% 29.59 in 5.0 mi NNE 21.9 mph - N/A   Overcast
12:56 AM - - - N/A% 29.61 in 7.0 mi NNE 17.3 mph - N/A   Overcast
1:16 AM - - - N/A% 29.60 in 10.0 mi NNE 16.1 mph - 0.01 in   Overcast
1:36 AM - - - N/A% 29.60 in 10.0 mi NNE 17.3 mph - 0.02 in   Overcast
1:56 AM - - - N/A% 29.61 in 5.0 mi NNE 16.1 mph - 0.02 in   Overcast
2:16 AM - - - N/A% 29.61 in 8.0 mi NNE 17.3 mph - N/A   Overcast
2:36 AM - - - N/A% 29.61 in 9.0 mi NNE 16.1 mph - N/A   Overcast
2:56 AM - - - N/A% 29.61 in 3.0 mi NE 17.3 mph 25.3 mph N/A   Overcast
3:16 AM - - - N/A% 29.61 in 2.0 mi NE 21.9 mph 25.3 mph N/A   Overcast
3:36 AM - - - N/A% 29.62 in 2.5 mi ENE 19.6 mph 27.6 mph N/A   Overcast
3:56 AM - - - N/A% 29.61 in 5.0 mi ENE 18.4 mph - 0.01 in   Overcast
4:16 AM - - - N/A% 29.62 in 5.0 mi ENE 19.6 mph - 0.01 in   Overcast
4:36 AM - - - N/A% 29.62 in 5.0 mi NE 16.1 mph - 0.01 in   Overcast
4:56 AM - - - N/A% 29.61 in 4.0 mi ENE 19.6 mph - 0.01 in   Overcast
5:16 AM - - - N/A% 29.61 in 4.0 mi ENE 20.7 mph - N/A   Overcast
5:36 AM - - - N/A% 29.60 in 2.5 mi ENE 24.2 mph 28.8 mph 0.02 in   Overcast
5:56 AM - - - N/A% 29.60 in 1.8 mi ENE 24.2 mph 31.1 mph 0.02 in   Overcast
6:16 AM - - - N/A% 29.61 in 1.8 mi NE 21.9 mph 29.9 mph N/A   Overcast
6:36 AM 10.4 °F -9.5 °F -2.2 °F 57% 29.63 in 3.0 mi ENE 23.0 mph 28.8 mph 0.01 in   Overcast
6:56 AM - - - N/A% 29.64 in 2.0 mi ENE 21.9 mph 28.8 mph 0.01 in   Overcast
7:16 AM 8.6 °F -12.3 °F -4.0 °F 57% 29.65 in 2.5 mi ENE 24.2 mph - N/A   Overcast
7:36 AM 8.6 °F -12.7 °F 1.4 °F 73% 29.65 in 2.5 mi ENE 25.3 mph - N/A   Overcast
7:56 AM - - - N/A% 29.65 in 3.0 mi ENE 23.0 mph 27.6 mph N/A   Overcast
8:16 AM 8.6 °F -11.0 °F -2.2 °F 62% 29.67 in 4.0 mi ENE 20.7 mph - 0.01 in   Overcast
8:36 AM 8.6 °F -10.5 °F -2.2 °F 62% 29.68 in 4.0 mi ENE 19.6 mph - 0.01 in   Overcast
8:56 AM 8.6 °F -8.9 °F -2.2 °F 62% 29.71 in 5.0 mi ENE 16.1 mph 23.0 mph 0.01 in   Overcast
9:16 AM 8.6 °F -8.9 °F -2.2 °F 62% 29.72 in 4.0 mi ENE 16.1 mph - N/A   Overcast
9:36 AM 8.6 °F -10.5 °F -2.2 °F 62% 29.71 in 3.0 mi ENE 19.6 mph - N/A   Overcast
9:56 AM - - - N/A% 29.71 in 2.5 mi ENE 19.6 mph - N/A   Overcast
10:16 AM - - - N/A% 29.71 in 1.8 mi ENE 18.4 mph 24.2 mph N/A   Overcast
10:36 AM - - - N/A% 29.71 in 2.5 mi ENE 18.4 mph - N/A   Overcast
10:56 AM - - - N/A% 29.72 in 2.5 mi ENE 16.1 mph - 0.01 in   Overcast
11:16 AM - - - N/A% 29.73 in 2.0 mi ENE 15.0 mph - N/A   Overcast
11:36 AM - - - N/A% 29.74 in 2.5 mi NE 17.3 mph - 0.02 in   Overcast
11:56 AM - - - N/A% 29.74 in 2.0 mi NE 16.1 mph - 0.03 in   Overcast
12:16 PM - - - N/A% 29.75 in 2.5 mi NE 17.3 mph - 0.01 in   Overcast
12:36 PM - - - N/A% 29.75 in 3.0 mi NE 15.0 mph - 0.01 in   Overcast
12:56 PM - - - N/A% 29.75 in 3.0 mi ENE 15.0 mph - 0.02 in   Overcast
1:16 PM - - - N/A% 29.75 in 3.0 mi NE 13.8 mph - 0.01 in   Overcast
1:36 PM 12.2 °F -3.7 °F -2.2 °F 53% 29.75 in 2.5 mi NE 15.0 mph - 0.01 in   Overcast
1:56 PM - - - N/A% 29.75 in 3.0 mi NE 13.8 mph - 0.01 in   Overcast
2:16 PM - - - N/A% 29.75 in 3.0 mi ENE 16.1 mph - N/A   Overcast
2:36 PM - - - N/A% 29.75 in 4.0 mi NE 12.7 mph - 0.04 in   Overcast
2:56 PM - - - N/A% 29.75 in 4.0 mi NE 13.8 mph - 0.14 in   Overcast
3:16 PM - - - N/A% 29.75 in 4.0 mi NE 13.8 mph - 0.07 in   Overcast
3:36 PM 10.4 °F -4.8 °F -0.4 °F 62% 29.76 in 7.0 mi NE 12.7 mph - 0.09 in   Overcast
3:56 PM - - - N/A% 29.75 in 8.0 mi ENE 15.0 mph - 0.10 in   Overcast
4:16 PM 14.0 °F 0.5 °F -4.0 °F 45% 29.76 in 8.0 mi ENE 11.5 mph - 0.02 in   Overcast
4:36 PM 10.4 °F -2.4 °F -0.4 °F 62% 29.76 in 10.0 mi ENE 9.2 mph - 0.02 in   Overcast
4:56 PM 12.2 °F -1.0 °F 8.6 °F 85% 29.75 in 10.0 mi ENE 10.4 mph - 0.03 in   Overcast
5:16 PM 15.8 °F 3.4 °F 1.4 °F 53% 29.75 in 10.0 mi ENE 10.4 mph - N/A   Overcast
5:36 PM 15.8 °F 2.1 °F 3.2 °F 58% 29.76 in 10.0 mi ENE 12.7 mph - 0.02 in   Overcast
5:56 PM 15.8 °F 2.7 °F 3.2 °F 58% 29.76 in 10.0 mi ENE 11.5 mph - 0.02 in   Overcast
6:16 PM - - - N/A% 29.75 in 10.0 mi ENE 12.7 mph - 0.01 in   Overcast
6:36 PM - - - N/A% 29.73 in 10.0 mi ENE 12.7 mph - 0.01 in   Overcast
6:56 PM 17.6 °F 4.3 °F 3.2 °F 53% 29.74 in 10.0 mi ENE 12.7 mph - 0.01 in   Overcast
7:16 PM 15.8 °F 3.4 °F 1.4 °F 53% 29.74 in 10.0 mi ENE 10.4 mph - 0.03 in   Overcast
7:36 PM 12.2 °F -0.2 °F 1.4 °F 62% 29.75 in 10.0 mi ENE 9.2 mph - 0.09 in   Overcast
7:56 PM 15.8 °F 3.4 °F 8.6 °F 73% 29.75 in 10.0 mi ENE 10.4 mph - 0.20 in   Overcast
8:16 PM 12.2 °F 1.7 °F 5.0 °F 73% 29.75 in 10.0 mi NE 6.9 mph - 0.01 in   Overcast
8:36 PM - - - N/A% 29.75 in 10.0 mi NE 5.8 mph - 0.05 in   Overcast
8:56 PM 15.8 °F 6.1 °F 6.8 °F 68% 29.75 in 10.0 mi NE 6.9 mph - 0.11 in   Overcast
9:16 PM - - - N/A% 29.76 in 10.0 mi NE 6.9 mph - 0.05 in   Overcast
9:36 PM - - - N/A% 29.75 in 10.0 mi NE 9.2 mph - 0.11 in   Overcast
9:56 PM - - - N/A% 29.75 in 10.0 mi NE 9.2 mph - 0.12 in   Overcast
10:16 PM - - - N/A% 29.75 in 10.0 mi NE 11.5 mph - 0.05 in   Overcast
10:36 PM - - - N/A% 29.75 in 10.0 mi NE 15.0 mph - 0.06 in   Overcast
10:56 PM - - - N/A% 29.74 in 10.0 mi NE 15.0 mph - 0.09 in   Overcast
11:16 PM 15.8 °F 0.9 °F 1.4 °F 53% 29.75 in 10.0 mi NE 15.0 mph - 0.02 in   Overcast
11:36 PM 15.8 °F 0.9 °F 3.2 °F 58% 29.76 in 10.0 mi NE 15.0 mph - 0.06 in   Overcast
11:56 PM - - - N/A% 29.75 in 10.0 mi NE 16.1 mph - 0.15 in   Overcast